EZY58YJ EHAM-EGAA

Flight info

Callsign EZY58YJ
Flight time 1h 20m
Altitude 34000
Route BERGI L602 NALAX L46 GETNO DCT REMSI DCT UVPOK M147 ROBOP M146 IPSET P6 BELZU
Aircraft A320/M-SDE2E3FGHIJ1RWXYZ/LB1

Departure

Time 2026-04-29 12:35
Airport Amsterdam Airport Schiphol (EHAM)

Arrival

Time 2026-04-29 13:56
Airport Belfast International Airport (EGAA)
Time Latitude Longitude Altitude Speed Heading
2026-04-29 11:54 52.31026 4.75460 -2 ft 0 kts 149°
2026-04-29 11:57 52.31026 4.75461 -2 ft 0 kts 149°
2026-04-29 12:12 52.31026 4.75460 -2 ft 0 kts 149°
2026-04-29 12:22 52.31028 4.75458 -3 ft 4 kts 150°
2026-04-29 12:23 52.31045 4.75441 -3 ft 4 kts 138°
2026-04-29 12:23 52.31060 4.75409 -3 ft 4 kts 100°
2026-04-29 12:23 52.31058 4.75378 -3 ft 0 kts 57°
2026-04-29 12:26 52.31086 4.75450 -3 ft 12 kts 55°
2026-04-29 12:26 52.31162 4.75494 -2 ft 13 kts 356°
2026-04-29 12:27 52.31261 4.75484 -2 ft 15 kts 356°
2026-04-29 12:27 52.31377 4.75473 -3 ft 18 kts 356°
2026-04-29 12:27 52.31497 4.75448 -3 ft 16 kts 328°
2026-04-29 12:27 52.31507 4.75262 -3 ft 22 kts 267°
2026-04-29 12:28 52.31497 4.74994 -3 ft 24 kts 266°
2026-04-29 12:28 52.31488 4.74724 -2 ft 21 kts 274°
2026-04-29 12:28 52.31518 4.74669 -2 ft 1 kts 329°
2026-04-29 12:28 52.31487 4.74565 -2 ft 19 kts 249°
2026-04-29 12:29 52.31481 4.74359 -2 ft 16 kts 285°
2026-04-29 12:29 52.31579 4.74294 0 ft 19 kts
2026-04-29 12:29 52.31724 4.74310 -1 ft 23 kts
2026-04-29 12:29 52.31894 4.74326 -6 ft 25 kts
2026-04-29 12:30 52.32025 4.74288 -6 ft 17 kts 299°
2026-04-29 12:30 52.32034 4.74099 -6 ft 20 kts 272°
2026-04-29 12:30 52.32045 4.73836 -1 ft 26 kts 274°
2026-04-29 12:30 52.32059 4.73523 1 ft 28 kts 274°
2026-04-29 12:31 52.32145 4.73273 0 ft 27 kts 320°
2026-04-29 12:31 52.32295 4.73068 -4 ft 29 kts 320°
2026-04-29 12:31 52.32448 4.72854 -3 ft 30 kts 319°
2026-04-29 12:31 52.32606 4.72633 -3 ft 30 kts 319°
2026-04-29 12:32 52.32746 4.72393 -1 ft 29 kts 310°
2026-04-29 12:32 52.32883 4.72141 -3 ft 31 kts 312°
2026-04-29 12:32 52.33026 4.71880 -2 ft 31 kts 311°
2026-04-29 12:32 52.33142 4.71653 -1 ft 21 kts 296°
2026-04-29 12:33 52.33132 4.71443 -1 ft 16 kts 278°
2026-04-29 12:33 52.33195 4.71306 -1 ft 15 kts 312°
2026-04-29 12:33 52.33266 4.71176 -4 ft 16 kts 311°
2026-04-29 12:33 52.33314 4.71084 -4 ft 6 kts 311°
2026-04-29 12:34 52.33336 4.71044 -4 ft 4 kts 312°
2026-04-29 12:34 52.33365 4.70996 -4 ft 10 kts 317°
2026-04-29 12:34 52.33416 4.70940 -4 ft 8 kts 342°
2026-04-29 12:34 52.33523 4.70943 -2 ft 35 kts
2026-04-29 12:35 52.34007 4.70988 -3 ft 102 kts
2026-04-29 12:35 52.34901 4.71071 0 ft 152 kts
2026-04-29 12:35 52.36023 4.71172 481 ft 160 kts
2026-04-29 12:35 52.37123 4.71252 1240 ft 159 kts
2026-04-29 12:36 52.38248 4.71311 1804 ft 167 kts
2026-04-29 12:36 52.39460 4.71377 2269 ft 179 kts
2026-04-29 12:36 52.40772 4.71502 2603 ft 199 kts
2026-04-29 12:36 52.42230 4.71530 2979 ft 222 kts 356°
2026-04-29 12:37 52.43758 4.70609 3467 ft 247 kts 332°
2026-04-29 12:37 52.45125 4.68648 3962 ft 271 kts 319°
2026-04-29 12:37 52.46476 4.66443 4788 ft 277 kts 319°
2026-04-29 12:37 52.47842 4.64193 5635 ft 281 kts 319°
2026-04-29 12:38 52.49232 4.61900 6458 ft 285 kts 319°
2026-04-29 12:38 52.50638 4.59580 7308 ft 289 kts 319°
2026-04-29 12:38 52.52122 4.57420 8098 ft 289 kts 329°
2026-04-29 12:38 52.53874 4.55707 8905 ft 291 kts 335°
2026-04-29 12:39 52.55618 4.54080 9695 ft 294 kts 335°
2026-04-29 12:39 52.57403 4.52409 10493 ft 296 kts 334°
2026-04-29 12:39 52.59247 4.50682 10870 ft 317 kts 334°
2026-04-29 12:39 52.61225 4.48831 11232 ft 334 kts 334°
2026-04-29 12:40 52.63260 4.46917 11916 ft 339 kts 333°
2026-04-29 12:40 52.65280 4.44881 12627 ft 345 kts 325°
2026-04-29 12:40 52.66934 4.41971 13321 ft 353 kts 307°
2026-04-29 12:40 52.68305 4.38585 14021 ft 356 kts 306°
2026-04-29 12:41 52.69661 4.35154 14691 ft 359 kts 306°
2026-04-29 12:41 52.71018 4.31684 15339 ft 362 kts 306°
2026-04-29 12:41 52.72386 4.28178 15964 ft 364 kts 306°
2026-04-29 12:41 52.73762 4.24657 16586 ft 367 kts 306°
2026-04-29 12:42 52.75154 4.21102 17210 ft 370 kts 306°
2026-04-29 12:42 52.76555 4.17522 17804 ft 372 kts 306°
2026-04-29 12:42 52.77966 4.13917 18379 ft 375 kts 306°
2026-04-29 12:42 52.79386 4.10284 18936 ft 378 kts 306°
2026-04-29 12:43 52.80818 4.06622 19457 ft 381 kts 306°
2026-04-29 12:43 52.82264 4.02918 19969 ft 385 kts 306°
2026-04-29 12:43 52.83721 3.99180 20473 ft 388 kts 306°
2026-04-29 12:43 52.85186 3.95402 20960 ft 392 kts 306°
2026-04-29 12:44 52.86662 3.91582 21404 ft 396 kts 306°
2026-04-29 12:44 52.88156 3.87719 21844 ft 400 kts 306°
2026-04-29 12:44 52.89662 3.83829 22294 ft 403 kts 306°
2026-04-29 12:44 52.91179 3.79909 22737 ft 406 kts 306°
2026-04-29 12:45 52.92707 3.75950 23162 ft 409 kts 306°
2026-04-29 12:45 52.94224 3.72010 23581 ft 413 kts 306°
2026-04-29 12:45 52.95768 3.67985 24007 ft 415 kts 306°
2026-04-29 12:45 52.97322 3.63928 24414 ft 418 kts 306°
2026-04-29 12:46 52.98886 3.59846 24800 ft 421 kts 306°
2026-04-29 12:46 53.00460 3.55729 25172 ft 424 kts 306°
2026-04-29 12:46 53.02044 3.51575 25550 ft 427 kts 306°
2026-04-29 12:46 53.03636 3.47398 25890 ft 429 kts 306°
2026-04-29 12:47 53.05239 3.43191 26244 ft 432 kts 306°
2026-04-29 12:47 53.06846 3.38959 26576 ft 435 kts 306°
2026-04-29 12:47 53.08462 3.34683 26911 ft 438 kts 304°
2026-04-29 12:47 53.09851 3.30135 27236 ft 445 kts 295°
2026-04-29 12:48 53.10801 3.25204 27539 ft 451 kts 285°
2026-04-29 12:48 53.11483 3.20097 27845 ft 454 kts 285°
2026-04-29 12:48 53.12161 3.14952 28171 ft 456 kts 285°
2026-04-29 12:48 53.12841 3.09789 28479 ft 458 kts 285°
2026-04-29 12:49 53.13524 3.04589 28781 ft 461 kts 284°
2026-04-29 12:49 53.14211 2.99360 29076 ft 463 kts 284°
2026-04-29 12:49 53.14898 2.94113 29372 ft 465 kts 284°
2026-04-29 12:49 53.15584 2.88834 29651 ft 468 kts 284°
2026-04-29 12:50 53.16271 2.83522 29929 ft 470 kts 284°
2026-04-29 12:50 53.16959 2.78183 30183 ft 472 kts 284°
2026-04-29 12:50 53.17649 2.72822 30456 ft 474 kts 284°
2026-04-29 12:50 53.18338 2.67444 30724 ft 476 kts 284°
2026-04-29 12:51 53.19029 2.62042 30979 ft 477 kts 284°
2026-04-29 12:51 53.19722 2.56613 31224 ft 479 kts 284°
2026-04-29 12:51 53.20412 2.51174 31472 ft 481 kts 284°
2026-04-29 12:51 53.21102 2.45714 31773 ft 480 kts 284°
2026-04-29 12:52 53.21789 2.40271 32117 ft 480 kts 284°
2026-04-29 12:52 53.22474 2.34830 32451 ft 479 kts 284°
2026-04-29 12:52 53.23148 2.29475 32774 ft 478 kts 284°
2026-04-29 12:52 53.23828 2.24051 33084 ft 477 kts 283°
2026-04-29 12:53 53.24502 2.18632 33383 ft 476 kts 283°
2026-04-29 12:53 53.25170 2.13222 33699 ft 476 kts 283°
2026-04-29 12:53 53.25836 2.07817 34004 ft 475 kts 283°
2026-04-29 12:53 53.26499 2.02419 34304 ft 474 kts 283°
2026-04-29 12:54 53.27157 1.97021 34413 ft 472 kts 283°
2026-04-29 12:54 53.28232 1.88184 34429 ft 464 kts 283°
2026-04-29 12:55 53.29513 1.77636 34430 ft 463 kts 283°
2026-04-29 12:55 53.30784 1.67094 34431 ft 463 kts 283°
2026-04-29 12:56 53.32032 1.56533 34429 ft 463 kts 283°
2026-04-29 12:56 53.33315 1.45985 34430 ft 462 kts 284°
2026-04-29 12:57 53.34840 1.35539 34424 ft 462 kts 286°
2026-04-29 12:57 53.36439 1.25135 34424 ft 462 kts 286°
2026-04-29 12:58 53.37977 1.14686 34414 ft 462 kts 285°
2026-04-29 12:58 53.39459 1.04213 34411 ft 462 kts 285°
2026-04-29 12:59 53.40928 0.93733 34410 ft 462 kts 285°
2026-04-29 12:59 53.42393 0.83241 34408 ft 462 kts 285°
2026-04-29 13:00 53.43857 0.72750 34409 ft 462 kts 285°
2026-04-29 13:00 53.45321 0.62245 34410 ft 463 kts 285°
2026-04-29 13:01 53.46769 0.51720 34422 ft 463 kts 284°
2026-04-29 13:01 53.48204 0.41174 34421 ft 463 kts 284°
2026-04-29 13:02 53.49634 0.30626 34425 ft 463 kts 284°
2026-04-29 13:02 53.51060 0.20068 34429 ft 463 kts 284°
2026-04-29 13:03 53.52480 0.09509 34432 ft 463 kts 284°
2026-04-29 13:03 53.53892 -0.01070 34436 ft 464 kts 284°
2026-04-29 13:04 53.55285 -0.11652 34423 ft 465 kts 283°
2026-04-29 13:04 53.56659 -0.22263 34422 ft 469 kts 283°
2026-04-29 13:05 53.58057 -0.33084 34430 ft 472 kts 283°
2026-04-29 13:05 53.59447 -0.43820 34440 ft 473 kts 283°
2026-04-29 13:06 53.60835 -0.54655 34441 ft 473 kts 283°
2026-04-29 13:06 53.62218 -0.65497 34448 ft 474 kts 282°
2026-04-29 13:07 53.63587 -0.76357 34448 ft 474 kts 282°
2026-04-29 13:07 53.64939 -0.87227 34440 ft 473 kts 282°
2026-04-29 13:08 53.66283 -0.98080 34415 ft 473 kts 282°
2026-04-29 13:08 53.67617 -1.08935 34393 ft 472 kts 282°
2026-04-29 13:09 53.68940 -1.19772 34382 ft 472 kts 282°
2026-04-29 13:09 53.70252 -1.30613 34374 ft 471 kts 282°
2026-04-29 13:10 53.71545 -1.41462 34374 ft 471 kts 282°
2026-04-29 13:10 53.72833 -1.52293 34379 ft 470 kts 282°
2026-04-29 13:11 53.74106 -1.63125 34391 ft 470 kts 282°
2026-04-29 13:11 53.75300 -1.73960 34405 ft 469 kts 281°
2026-04-29 13:12 53.76442 -1.84726 34408 ft 468 kts 281°
2026-04-29 13:12 53.77593 -1.95556 34408 ft 468 kts 281°
2026-04-29 13:13 53.78743 -2.06370 34402 ft 467 kts 281°
2026-04-29 13:13 53.79886 -2.17178 34391 ft 467 kts 281°
2026-04-29 13:14 53.81018 -2.27998 34382 ft 467 kts 281°
2026-04-29 13:14 53.82137 -2.38833 34381 ft 467 kts 281°
2026-04-29 13:15 53.83240 -2.49666 34379 ft 468 kts 280°
2026-04-29 13:15 53.84340 -2.60559 34372 ft 469 kts 280°
2026-04-29 13:16 53.85433 -2.71446 34366 ft 470 kts 280°
2026-04-29 13:16 53.86522 -2.82367 34362 ft 470 kts 280°
2026-04-29 13:17 53.87610 -2.93299 34361 ft 471 kts 280°
2026-04-29 13:17 53.88691 -3.04254 34358 ft 472 kts 279°
2026-04-29 13:18 53.89757 -3.15224 34364 ft 472 kts 279°
2026-04-29 13:18 53.90806 -3.26231 34365 ft 473 kts 279°
2026-04-29 13:19 53.91846 -3.37183 34366 ft 473 kts 279°
2026-04-29 13:19 53.92877 -3.48205 34372 ft 473 kts 279°
2026-04-29 13:20 53.93909 -3.59248 34372 ft 473 kts 279°
2026-04-29 13:20 53.94928 -3.70271 34365 ft 473 kts 279°
2026-04-29 13:21 53.95929 -3.81317 34367 ft 473 kts 279°
2026-04-29 13:21 53.96930 -3.92453 34377 ft 482 kts 279°
2026-04-29 13:22 53.97936 -4.03766 34377 ft 485 kts 279°
2026-04-29 13:22 53.98967 -4.15105 34374 ft 485 kts 283°
2026-04-29 13:22 53.99920 -4.20585 34376 ft 483 kts 294°
2026-04-29 13:23 54.01426 -4.25677 34376 ft 480 kts 305°
2026-04-29 13:23 54.05247 -4.34968 34385 ft 479 kts 308°
2026-04-29 13:24 54.09075 -4.44240 34383 ft 479 kts 308°
2026-04-29 13:24 54.12893 -4.53534 34382 ft 478 kts 308°
2026-04-29 13:25 54.16704 -4.62835 34383 ft 478 kts 308°
2026-04-29 13:25 54.22383 -4.76722 34383 ft 477 kts 308°
2026-04-29 13:26 54.26178 -4.86038 34377 ft 477 kts 307°
2026-04-29 13:26 54.29960 -4.95370 34375 ft 477 kts 307°
2026-04-29 13:27 54.33726 -5.04720 34369 ft 477 kts 307°
2026-04-29 13:27 54.37490 -5.14076 34372 ft 476 kts 307°
2026-04-29 13:28 54.41249 -5.23451 34375 ft 477 kts 307°
2026-04-29 13:28 54.45016 -5.32834 34375 ft 476 kts 311°
2026-04-29 13:29 54.49481 -5.41141 34379 ft 475 kts 312°
2026-04-29 13:29 54.51151 -5.46059 34380 ft 480 kts 290°
2026-04-29 13:29 54.51782 -5.51681 34379 ft 481 kts 271°
2026-04-29 13:30 54.51725 -5.63189 34373 ft 483 kts 268°
2026-04-29 13:30 54.51657 -5.68978 33949 ft 485 kts 268°
2026-04-29 13:30 54.51791 -5.74793 32797 ft 494 kts 282°
2026-04-29 13:31 54.52940 -5.80402 31472 ft 501 kts 303°
2026-04-29 13:31 54.55080 -5.85118 30138 ft 503 kts 321°
2026-04-29 13:31 54.57863 -5.88759 28801 ft 503 kts 334°
2026-04-29 13:31 54.61005 -5.91228 28053 ft 489 kts 346°
2026-04-29 13:32 54.64289 -5.92533 26914 ft 482 kts 360°
2026-04-29 13:32 54.67603 -5.92326 25625 ft 475 kts 15°
2026-04-29 13:32 54.70720 -5.90601 24380 ft 468 kts 30°
2026-04-29 13:32 54.73451 -5.87628 23166 ft 462 kts 44°
2026-04-29 13:33 54.75651 -5.83705 22421 ft 448 kts 56°
2026-04-29 13:33 54.77278 -5.79192 21645 ft 437 kts 67°
2026-04-29 13:33 54.78260 -5.74293 20818 ft 428 kts 79°
2026-04-29 13:33 54.78680 -5.69231 19997 ft 422 kts 85°
2026-04-29 13:34 54.78864 -5.64263 19212 ft 417 kts 89°
2026-04-29 13:34 54.78901 -5.59268 18436 ft 412 kts 91°
2026-04-29 13:34 54.78867 -5.54343 17679 ft 407 kts 92°
2026-04-29 13:34 54.78823 -5.49395 16918 ft 403 kts 91°
2026-04-29 13:35 54.78801 -5.44636 16175 ft 399 kts 91°
2026-04-29 13:35 54.78806 -5.39849 15426 ft 395 kts 90°
2026-04-29 13:35 54.78835 -5.35103 14664 ft 392 kts 90°
2026-04-29 13:35 54.78875 -5.30404 13913 ft 389 kts 90°
2026-04-29 13:36 54.78919 -5.25743 13157 ft 385 kts 90°
2026-04-29 13:36 54.78964 -5.21126 12381 ft 382 kts 90°
2026-04-29 13:36 54.79004 -5.16550 11604 ft 379 kts 90°
2026-04-29 13:36 54.79038 -5.12013 10823 ft 376 kts 90°
2026-04-29 13:37 54.79063 -5.07500 10018 ft 374 kts 91°
2026-04-29 13:37 54.78995 -5.03023 9228 ft 370 kts 98°
2026-04-29 13:37 54.78285 -4.98785 8444 ft 366 kts 115°
2026-04-29 13:37 54.76859 -4.95155 7666 ft 365 kts 132°
2026-04-29 13:38 54.74849 -4.92500 6889 ft 365 kts 150°
2026-04-29 13:38 54.72453 -4.91071 6128 ft 367 kts 168°
2026-04-29 13:38 54.69907 -4.91015 5418 ft 367 kts 185°
2026-04-29 13:38 54.67486 -4.92366 4885 ft 364 kts 205°
2026-04-29 13:39 54.65488 -4.94863 4763 ft 349 kts 221°
2026-04-29 13:39 54.64036 -4.98114 4620 ft 337 kts 238°
2026-04-29 13:39 54.63220 -5.01804 4518 ft 324 kts 256°
2026-04-29 13:39 54.62884 -5.05552 4392 ft 309 kts 260°
2026-04-29 13:40 54.62591 -5.09144 4267 ft 295 kts 261°
2026-04-29 13:40 54.62310 -5.12576 4147 ft 282 kts 260°
2026-04-29 13:40 54.62038 -5.15852 4025 ft 270 kts 260°
2026-04-29 13:40 54.61780 -5.18928 3998 ft 256 kts 260°
2026-04-29 13:41 54.61518 -5.22004 3996 ft 262 kts 260°
2026-04-29 13:41 54.61253 -5.25122 4013 ft 264 kts 260°
2026-04-29 13:41 54.60986 -5.28253 4013 ft 264 kts 260°
2026-04-29 13:41 54.60717 -5.31390 4009 ft 264 kts 260°
2026-04-29 13:42 54.60447 -5.34516 4011 ft 264 kts 260°
2026-04-29 13:42 54.60177 -5.37649 4008 ft 264 kts 260°
2026-04-29 13:42 54.59908 -5.40787 4017 ft 265 kts 260°
2026-04-29 13:42 54.59641 -5.43923 4003 ft 264 kts 260°
2026-04-29 13:43 54.59373 -5.47056 3999 ft 264 kts 260°
2026-04-29 13:43 54.59101 -5.50197 4005 ft 265 kts 260°
2026-04-29 13:43 54.58828 -5.53341 4001 ft 266 kts 260°
2026-04-29 13:43 54.58556 -5.56488 4006 ft 265 kts 260°
2026-04-29 13:44 54.58284 -5.59632 4010 ft 266 kts 259°
2026-04-29 13:44 54.58008 -5.62793 4023 ft 266 kts 259°
2026-04-29 13:44 54.57733 -5.65915 4023 ft 258 kts 259°
2026-04-29 13:44 54.57467 -5.68961 4023 ft 256 kts 259°
2026-04-29 13:45 54.57199 -5.71995 4001 ft 257 kts 259°
2026-04-29 13:45 54.56927 -5.75034 4024 ft 253 kts 259°
2026-04-29 13:45 54.56666 -5.77949 4027 ft 240 kts 259°
2026-04-29 13:45 54.56414 -5.80759 4049 ft 236 kts 259°
2026-04-29 13:46 54.56247 -5.82611 4035 ft 236 kts 259°
2026-04-29 13:46 54.55996 -5.85399 4015 ft 235 kts 259°
2026-04-29 13:46 54.55745 -5.88176 4001 ft 235 kts 259°
2026-04-29 13:46 54.55492 -5.90950 4017 ft 235 kts 259°
2026-04-29 13:47 54.55241 -5.93700 3725 ft 232 kts 259°
2026-04-29 13:47 54.54990 -5.96458 3465 ft 233 kts 259°
2026-04-29 13:47 54.54741 -5.99219 3254 ft 233 kts 259°
2026-04-29 13:47 54.54493 -6.01976 3116 ft 233 kts 259°
2026-04-29 13:48 54.54239 -6.04744 3027 ft 235 kts 259°
2026-04-29 13:48 54.53985 -6.07516 2950 ft 234 kts 259°
2026-04-29 13:48 54.53730 -6.10287 2912 ft 234 kts 259°
2026-04-29 13:48 54.53480 -6.13049 2925 ft 234 kts 259°
2026-04-29 13:49 54.53231 -6.15787 2958 ft 235 kts 259°
2026-04-29 13:49 54.52974 -6.18569 3010 ft 236 kts 259°
2026-04-29 13:49 54.52713 -6.21352 3105 ft 235 kts 259°
2026-04-29 13:49 54.52454 -6.24128 3114 ft 231 kts 258°
2026-04-29 13:50 54.52197 -6.26865 2731 ft 232 kts 258°
2026-04-29 13:50 54.51962 -6.29594 2398 ft 229 kts 265°
2026-04-29 13:50 54.52196 -6.32243 2192 ft 219 kts 289°
2026-04-29 13:50 54.52977 -6.34357 2069 ft 204 kts 314°
2026-04-29 13:51 54.53938 -6.36080 1882 ft 196 kts 322°
2026-04-29 13:51 54.55125 -6.37027 1813 ft 186 kts 355°
2026-04-29 13:51 54.56412 -6.37205 1804 ft 185 kts
2026-04-29 13:51 54.57701 -6.37274 1808 ft 185 kts
2026-04-29 13:52 54.58915 -6.37338 1811 ft 160 kts
2026-04-29 13:52 54.59992 -6.37414 1809 ft 150 kts
2026-04-29 13:52 54.60998 -6.37306 1795 ft 140 kts 26°
2026-04-29 13:52 54.61848 -6.36559 1813 ft 135 kts 41°
2026-04-29 13:53 54.62439 -6.35367 1807 ft 130 kts 67°
2026-04-29 13:53 54.62758 -6.33906 1775 ft 131 kts 76°
2026-04-29 13:53 54.62996 -6.32386 1595 ft 131 kts 78°
2026-04-29 13:53 54.63256 -6.30870 1373 ft 132 kts 75°
2026-04-29 13:54 54.63561 -6.29378 1159 ft 132 kts 68°
2026-04-29 13:54 54.63981 -6.27963 953 ft 133 kts 63°
2026-04-29 13:54 54.64417 -6.26557 743 ft 133 kts 65°
2026-04-29 13:54 54.64812 -6.25114 467 ft 133 kts 68°
2026-04-29 13:55 54.65191 -6.23654 284 ft 133 kts 66°
2026-04-29 13:55 54.65562 -6.22268 227 ft 113 kts 65°
2026-04-29 13:55 54.65818 -6.21320 239 ft 65 kts 65°
2026-04-29 13:55 54.65983 -6.20706 247 ft 51 kts 65°
2026-04-29 13:56 54.66118 -6.20209 259 ft 41 kts 65°
2026-04-29 13:56 54.66222 -6.19832 262 ft 26 kts 63°
2026-04-29 13:56 54.66290 -6.19667 264 ft 14 kts 18°
2026-04-29 13:56 54.66380 -6.19742 264 ft 20 kts 310°
2026-04-29 13:57 54.66361 -6.19987 261 ft 23 kts 245°
2026-04-29 13:57 54.66287 -6.20256 257 ft 26 kts 244°
2026-04-29 13:57 54.66212 -6.20538 253 ft 26 kts 245°
2026-04-29 13:57 54.66149 -6.20771 250 ft 19 kts 245°
2026-04-29 13:58 54.66098 -6.20959 247 ft 16 kts 244°
2026-04-29 13:58 54.66064 -6.21082 246 ft 9 kts 244°
2026-04-29 13:58 54.66049 -6.21172 244 ft 7 kts 285°
2026-04-29 13:58 54.66082 -6.21224 244 ft 7 kts 316°
2026-04-29 13:59 54.66081 -6.21297 243 ft 6 kts 246°
2026-04-29 13:59 54.66075 -6.21319 242 ft 2 kts 244°
2026-04-29 13:59 54.66073 -6.21323 242 ft 0 kts 244°
2026-04-29 14:00 54.66073 -6.21324 242 ft 0 kts 244°